TimeCST,TemperatureF,Dew PointF,Humidity,Sea Level PressureIn,VisibilityMPH,Wind Direction,Wind SpeedMPH,Gust SpeedMPH,PrecipitationIn,Events,Conditions,WindDirDegrees,DateUTC
12:53 AM,52.0,39.9,63,30.17,10.0,ENE,8.1,-,N/A,,Clear,70,2012-11-08 06:53:00
1:53 AM,50.0,39.0,66,30.18,10.0,East,6.9,-,N/A,,Clear,80,2012-11-08 07:53:00
2:53 AM,48.9,37.9,66,30.18,10.0,East,4.6,-,N/A,,Clear,90,2012-11-08 08:53:00
3:53 AM,48.0,39.0,71,30.19,10.0,ENE,5.8,-,N/A,,Clear,60,2012-11-08 09:53:00
4:53 AM,48.0,39.0,71,30.20,10.0,ENE,5.8,-,N/A,,Clear,70,2012-11-08 10:53:00
5:53 AM,46.0,37.9,73,30.21,10.0,Calm,Calm,-,N/A,,Clear,0,2012-11-08 11:53:00
6:53 AM,46.9,39.0,74,30.23,10.0,Calm,Calm,-,N/A,,Clear,0,2012-11-08 12:53:00
7:53 AM,52.0,42.1,69,30.26,10.0,East,6.9,-,N/A,,Clear,90,2012-11-08 13:53:00
8:53 AM,57.0,43.0,59,30.27,10.0,East,8.1,-,N/A,,Clear,100,2012-11-08 14:53:00
9:53 AM,61.0,41.0,48,30.28,10.0,ESE,8.1,-,N/A,,Clear,110,2012-11-08 15:53:00
10:53 AM,64.0,41.0,43,30.26,10.0,East,8.1,-,N/A,,Clear,80,2012-11-08 16:53:00
11:53 AM,66.0,41.0,40,30.23,10.0,East,5.8,-,N/A,,Clear,90,2012-11-08 17:53:00
12:53 PM,69.1,41.0,36,30.21,10.0,ENE,4.6,-,N/A,,Clear,70,2012-11-08 18:53:00
1:53 PM,70.0,41.0,35,30.18,10.0,NE,6.9,-,N/A,,Clear,50,2012-11-08 19:53:00
2:53 PM,70.0,39.9,33,30.17,10.0,Variable,3.5,-,N/A,,Clear,0,2012-11-08 20:53:00
3:53 PM,70.0,39.9,33,30.17,10.0,NE,3.5,-,N/A,,Clear,50,2012-11-08 21:53:00
4:53 PM,66.9,42.1,40,30.17,10.0,ESE,3.5,-,N/A,,Clear,110,2012-11-08 22:53:00
5:53 PM,60.1,48.0,64,30.18,10.0,Calm,Calm,-,N/A,,Clear,0,2012-11-08 23:53:00
6:53 PM,57.0,46.0,67,30.19,10.0,Calm,Calm,-,N/A,,Clear,0,2012-11-09 00:53:00
7:53 PM,55.0,48.0,77,30.20,10.0,Calm,Calm,-,N/A,,Clear,0,2012-11-09 01:53:00
8:53 PM,53.1,45.0,74,30.21,10.0,SE,3.5,-,N/A,,Clear,140,2012-11-09 02:53:00
9:53 PM,51.1,44.1,77,30.21,10.0,SSE,3.5,-,N/A,,Clear,160,2012-11-09 03:53:00
10:53 PM,50.0,44.1,80,30.20,10.0,SE,6.9,-,N/A,,Clear,130,2012-11-09 04:53:00
11:53 PM,51.1,45.0,80,30.20,10.0,SSE,3.5,-,N/A,,Clear,160,2012-11-09 05:53:00